Date String (YYYY-MM-DD hh:mm:ss) UTC,Instrument flags,absolute air pressure of the measurement (hPa),sample flow rate (lpm),inlet stack bypass flow (lpm),air temperature of the measurement (°C),ambient temperature measured by the external sensor (°C),aerosol sample conditioner tube jacket temperature (°C),OPC LED temperature (°C),internal box temperature (°C),relative humidity of the measurement (%),span deviation,mass concentration of particles derived from Lorenz-Mie calculation of OPC scattering (μg/m³),mass concentration of particles derived from Lorenz-Mie calculation of OPC scattering (μg/m³),mass concentration of particles derived from Lorenz-Mie calculation of OPC scattering (μg/m³)
DateTimeUTC,F1_M11,P_M11,Q1_M11,Q2_M11,T1_M11,T2_M11,T3_M11,T4_M11,T5_M11,U1_M11,ZSPAN_M11,X0_M11,X2_M11,X1_M11
2024-05-13 08:00:00,SystemResetWarning,0827.1,5.00,000.00,025.8,025.2,000.0,033.9,027.5,019.8,0000.0,0006.71,0002.96,0002.20
2024-05-13 08:01:00,SystemResetWarning,0827.2,5.00,000.00,025.8,025.2,000.0,033.9,027.5,019.8,0000.0,0006.86,0002.98,0002.20
2024-05-13 08:02:00,SystemResetWarning,0827.1,4.99,000.00,025.8,025.2,000.0,033.9,027.5,019.9,0000.0,0006.85,0002.96,0002.19
2024-05-13 08:03:00,SystemResetWarning,0827.1,5.00,000.00,025.8,025.3,000.0,034.0,027.5,019.9,0000.0,0006.08,0003.00,0002.20
2024-05-13 08:04:00,SystemResetWarning,0827.2,5.00,000.00,025.8,025.3,000.0,034.0,027.5,019.9,0000.0,0005.85,0003.00,0002.21
2024-05-13 08:05:00,SystemResetWarning,0827.1,5.01,000.00,025.8,025.3,000.0,034.0,027.6,019.9,0000.0,0005.84,0003.00,0002.21
2024-05-13 08:06:00,SystemResetWarning,0827.1,5.01,000.00,025.8,025.3,000.0,034.0,027.6,019.9,0000.0,0005.72,0002.93,0002.21
2024-05-13 08:07:00,SystemResetWarning,0827.2,4.99,000.00,025.9,025.3,000.0,034.0,027.6,019.7,0000.0,0005.14,0002.89,0002.20
2024-05-13 08:08:00,SystemResetWarning,0827.1,4.99,000.00,025.9,025.3,000.0,034.0,027.6,019.6,0000.0,0005.23,0002.96,0002.21
2024-05-13 08:09:00,SystemResetWarning,0827.2,5.00,000.00,025.9,025.3,000.0,034.0,027.6,019.7,0000.0,0005.68,0002.97,0002.21
2024-05-13 08:10:00,SystemResetWarning,0827.1,5.01,000.00,025.9,025.3,000.0,034.0,027.6,019.9,0000.0,0005.96,0002.95,0002.20
2024-05-13 08:11:00,SystemResetWarning,0827.1,5.00,000.00,025.9,025.3,000.0,034.1,027.6,019.9,0000.0,0006.03,0002.99,0002.21
2024-05-13 08:12:00,SystemResetWarning,0827.1,4.99,000.00,025.9,025.3,000.0,034.1,027.6,019.7,0000.0,0005.94,0002.98,0002.21
2024-05-13 08:13:00,SystemResetWarning,0827.1,4.99,000.00,025.9,025.3,000.0,034.1,027.6,019.7,0000.0,0005.83,0002.94,0002.20
2024-05-13 08:14:00,SystemResetWarning,0827.1,5.01,000.00,025.9,025.3,000.0,034.1,027.6,019.7,0000.0,0005.74,0002.90,0002.19
2024-05-13 08:15:00,SystemResetWarning,0827.1,5.01,000.00,025.9,025.3,000.0,034.1,027.6,019.7,0000.0,0005.60,0002.88,0002.19
2024-05-13 08:16:00,SystemResetWarning,0827.1,5.00,000.00,026.0,025.4,000.0,034.1,027.7,019.7,0000.0,0005.52,0002.86,0002.19
2024-05-13 08:17:00,SystemResetWarning,0827.2,4.99,000.00,026.0,025.4,000.0,034.1,027.7,019.6,0000.0,0005.60,0002.89,0002.21
2024-05-13 08:18:00,SystemResetWarning,0827.2,4.99,000.00,026.0,025.4,000.0,034.1,027.7,019.8,0000.0,0005.69,0002.93,0002.22
2024-05-13 08:19:00,SystemResetWarning,0827.2,5.00,000.00,026.0,025.4,000.0,034.1,027.7,019.8,0000.0,0005.52,0002.90,0002.21
2024-05-13 08:20:00,SystemResetWarning,0827.2,5.01,000.00,026.0,025.4,000.0,034.2,027.7,019.8,0000.0,0004.67,0002.83,0002.20
2024-05-13 08:21:00,SystemResetWarning,0827.2,5.01,000.00,026.0,025.4,000.0,034.2,027.7,019.7,0000.0,0004.61,0002.83,0002.20
2024-05-13 08:22:00,SystemResetWarning,0827.2,5.00,000.00,026.0,025.4,000.0,034.2,027.7,019.8,0000.0,0004.48,0002.84,0002.21
2024-05-13 08:23:00,SystemResetWarning,0827.2,4.99,000.00,026.0,025.4,000.0,034.2,027.7,019.9,0000.0,0004.32,0002.79,0002.21
2024-05-13 08:24:00,SystemResetWarning,0827.2,5.00,000.00,026.0,025.4,000.0,034.2,027.7,019.9,0000.0,0004.38,0002.83,0002.23
2024-05-13 08:25:00,SystemResetWarning,0827.2,4.99,000.00,026.0,025.4,000.0,034.2,027.7,019.9,0000.0,0004.34,0002.81,0002.22
2024-05-13 08:26:00,SystemResetWarning,0827.2,5.00,000.00,026.0,025.4,000.0,034.2,027.7,019.8,0000.0,0004.31,0002.84,0002.23
2024-05-13 08:27:00,SystemResetWarning,0827.2,5.01,000.00,026.0,025.4,000.0,034.2,027.7,019.8,0000.0,0004.78,0002.94,0002.25
2024-05-13 08:28:00,SystemResetWarning,0827.2,5.00,000.00,026.0,025.4,000.0,034.2,027.7,019.8,0000.0,0005.37,0002.99,0002.25
2024-05-13 08:29:00,SystemResetWarning,0827.1,5.00,000.00,026.0,025.4,000.0,034.2,027.7,019.8,0000.0,0006.68,0002.97,0002.26
2024-05-13 08:30:00,SystemResetWarning,0827.1,5.01,000.00,026.0,025.4,000.0,034.2,027.7,019.7,0000.0,0007.83,0003.00,0002.27
2024-05-13 08:31:00,SystemResetWarning,0827.2,4.99,000.00,026.0,025.4,000.0,034.2,027.8,019.7,0000.0,0007.84,0003.02,0002.27
2024-05-13 08:32:00,SystemResetWarning,0827.2,4.99,000.00,026.0,025.4,000.0,034.2,027.8,019.8,0000.0,0007.77,0003.03,0002.27
2024-05-13 08:33:00,SystemResetWarning,0827.2,5.00,000.00,026.1,025.4,000.0,034.2,027.8,019.8,0000.0,0007.86,0003.09,0002.28
2024-05-13 08:34:00,SystemResetWarning,0827.2,5.02,000.00,026.1,025.4,000.0,034.3,027.8,019.8,0000.0,0008.02,0003.13,0002.28
2024-05-13 08:35:00,SystemResetWarning,0827.2,5.01,000.00,026.1,025.4,000.0,034.3,027.8,019.7,0000.0,0008.04,0003.13,0002.27
2024-05-13 08:36:00,SystemResetWarning,0827.2,5.00,000.00,026.1,025.4,000.0,034.3,027.7,019.7,0000.0,0008.05,0003.15,0002.28
2024-05-13 08:37:00,SystemResetWarning,0827.2,4.99,000.00,026.1,025.4,000.0,034.3,027.7,019.7,0000.0,0008.01,0003.13,0002.27
2024-05-13 08:38:00,SystemResetWarning,0827.2,5.00,000.00,026.1,025.4,000.0,034.3,027.8,019.7,0000.0,0007.75,0003.06,0002.26
2024-05-13 08:39:00,SystemResetWarning,0827.2,4.99,000.00,026.1,025.4,000.0,034.3,027.8,019.8,0000.0,0007.41,0002.99,0002.26
2024-05-13 08:40:00,SystemResetWarning,0827.2,5.00,000.00,026.1,025.4,000.0,034.3,027.8,019.8,0000.0,0006.26,0003.00,0002.27
2024-05-13 08:41:00,SystemResetWarning,0827.2,5.01,000.00,026.1,025.4,000.0,034.3,027.8,019.8,0000.0,0004.71,0002.98,0002.26
2024-05-13 08:42:00,SystemResetWarning,0827.2,5.01,000.00,026.1,025.4,000.0,034.3,027.8,019.8,0000.0,0004.71,0002.97,0002.27
2024-05-13 08:43:00,SystemResetWarning,0827.2,5.01,000.00,026.1,025.4,000.0,034.3,027.8,019.8,0000.0,0004.66,0002.93,0002.27
2024-05-13 08:44:00,SystemResetWarning,0827.2,5.00,000.00,026.1,025.4,000.0,034.3,027.8,020.0,0000.0,0004.40,0002.84,0002.28
2024-05-13 08:45:00,SystemResetWarning,0827.2,5.00,000.00,026.1,025.4,000.0,034.3,027.8,020.1,0000.0,0004.13,0002.79,0002.28
2024-05-13 08:46:00,SystemResetWarning,0827.2,5.00,000.00,026.1,025.4,000.0,034.3,027.8,020.0,0000.0,0004.23,0002.82,0002.28
2024-05-13 08:47:00,SystemResetWarning,0827.2,4.99,000.00,026.1,025.4,000.0,034.3,027.8,019.8,0000.0,0004.08,0002.76,0002.28
2024-05-13 08:48:00,SystemResetWarning,0827.2,5.00,000.00,026.1,025.4,000.0,034.3,027.8,019.9,0000.0,0003.97,0002.73,0002.28
2024-05-13 08:49:00,SystemResetWarning,0827.2,5.00,000.00,026.1,025.4,000.0,034.3,027.8,020.0,0000.0,0004.05,0002.75,0002.29
2024-05-13 08:50:00,SystemResetWarning,0827.2,5.01,000.00,026.1,025.4,000.0,034.3,027.8,019.9,0000.0,0004.27,0002.79,0002.28
2024-05-13 08:51:00,SystemResetWarning,0827.2,5.00,000.00,026.1,025.4,000.0,034.3,027.8,019.8,0000.0,0004.25,0002.84,0002.28
2024-05-13 08:52:00,SystemResetWarning,0827.1,5.00,000.00,026.1,025.4,000.0,034.3,027.8,019.8,0000.0,0004.26,0002.89,0002.29
2024-05-13 08:53:00,SystemResetWarning,0827.1,5.00,000.00,026.1,025.4,000.0,034.3,027.8,019.9,0000.0,0005.10,0002.95,0002.30
2024-05-13 08:54:00,SystemResetWarning,0827.2,5.00,000.00,026.1,025.4,000.0,034.3,027.8,020.0,0000.0,0005.63,0003.01,0002.31
2024-05-13 08:55:00,SystemResetWarning,0827.2,5.00,000.00,026.1,025.4,000.0,034.3,027.8,019.9,0000.0,0005.76,0003.08,0002.31
2024-05-13 08:56:00,SystemResetWarning,0827.2,5.00,000.00,026.1,025.4,000.0,034.3,027.8,019.8,0000.0,0005.88,0003.11,0002.32
2024-05-13 08:57:00,SystemResetWarning,0827.2,5.00,000.00,026.1,025.4,000.0,034.3,027.8,019.7,0000.0,0006.07,0003.11,0002.33
2024-05-13 08:58:00,SystemResetWarning,0827.2,5.01,000.00,026.1,025.4,000.0,034.3,027.8,019.7,0000.0,0006.18,0003.12,0002.34
2024-05-13 08:59:00,SystemResetWarning,0827.3,5.01,000.00,026.1,025.4,000.0,034.3,027.8,019.6,0000.0,0006.28,0003.16,0002.36
